Weather History for Orange, MA

Change the Weather History Date:

Monday, December 31, 2012

  Actual Average Record
Temperature  
Mean Temperature 18 °F -  
Max Temperature 30 °F 31 °F 44 °F (2004)
Min Temperature 5 °F 14 °F -4 °F (1998)
Degree Days  
Heating Degree Days 48    
Moisture  
Dew Point 15 °F    
Average Humidity 75    
Maximum Humidity 92    
Minimum Humidity 59    
Precipitation  
Precipitation 0.00 in - - ()
Sea Level Pressure  
Sea Level Pressure 29.95 in    
Wind  
Wind Speed 3 mph (SW)    
Max Wind Speed 10 mph    
Max Gust Speed 17 mph    
Visibility 10 miles    
Events      
Averages and records for this station are not official NWS values.
T = Trace of Precipitation, MM = Missing Value Source: NWS Daily Summary

Daily Weather History Graph

Daily Weather History Graph

Search for Another Location

Airport:

Trip Planner

Search our weather history database for the weather conditions in past years. The results will help you decide how hot, cold, wet, or windy it might be!

Date:

Astronomy

Dec. 31, 2012 Rise Set
Actual Time 7:19 AM EST 4:26 PM EST
Civil Twilight 6:47 AM EST 4:57 PM EST
Nautical Twilight 6:11 AM EST 5:33 PM EST
Astronomical Twilight 5:37 AM EST 6:07 PM EST
Moon 7:58 PM EST (12/31) 8:54 AM EST (12/31)
Length of Visible Light 10h 10m
Length of Day
9h 06m
Waning Gibbous, 90% of the Moon is Illuminated
Dec 31
Waning Gibbous
Jan 4
Last Quarter
Jan 11
New
Jan 18
First Quarter
Jan 26
Full

Hourly Weather History & Observations

Time (EST) Temp. Windchill Dew Point Humidity Pressure Visibility Wind Dir Wind Speed Gust Speed Precip Events Conditions
12:52 AM 17.1 °F 10.0 °F 5.0 °F 59% 30.00 in 10.0 mi North 4.6 mph - N/A   Clear
1:52 AM 15.1 °F 9.4 °F 5.0 °F 64% 30.01 in 10.0 mi Variable 3.5 mph - N/A   Clear
2:52 AM 10.9 °F - 3.9 °F 73% 30.02 in 10.0 mi Calm Calm - N/A   Clear
3:52 AM 12.9 °F - 7.0 °F 77% 30.02 in 10.0 mi Calm Calm - N/A   Clear
4:52 AM 5.0 °F - 3.0 °F 92% 30.01 in 10.0 mi Calm Calm - N/A   Clear
5:52 AM 5.0 °F - 3.0 °F 92% 30.03 in 10.0 mi Calm Calm - N/A   Scattered Clouds
6:52 AM 10.0 °F - 6.1 °F 84% 30.02 in 10.0 mi Calm Calm - N/A   Overcast
7:52 AM 14.0 °F - 10.0 °F 84% 30.04 in 9.0 mi Calm Calm - N/A   Overcast
8:47 AM 26.6 °F 21.2 °F 19.4 °F 74% 30.00 in 10.0 mi WSW 4.6 mph - N/A   Overcast
8:52 AM 26.1 °F 20.5 °F 19.0 °F 75% 30.03 in 10.0 mi WSW 4.6 mph - N/A   Overcast
9:52 AM 28.9 °F 19.8 °F 21.0 °F 72% 30.04 in 10.0 mi West 10.4 mph 17.3 mph N/A   Overcast
10:52 AM 28.0 °F 20.0 °F 21.0 °F 75% 30.03 in 10.0 mi SW 8.1 mph - N/A   Overcast
11:52 AM 28.9 °F 21.1 °F 21.0 °F 72% 30.00 in 10.0 mi WSW 8.1 mph - N/A   Overcast
12:52 PM 28.9 °F 21.1 °F 21.0 °F 72% 29.96 in 10.0 mi WSW 8.1 mph - N/A   Overcast
1:52 PM 30.0 °F 22.4 °F 21.0 °F 69% 29.94 in 10.0 mi WSW 8.1 mph - N/A   Overcast
2:52 PM 30.9 °F 22.8 °F 21.0 °F 67% 29.94 in 10.0 mi WSW 9.2 mph - N/A   Overcast
3:39 PM 30.2 °F - 19.4 °F 64% 29.89 in 10.0 mi Calm Calm - N/A   Scattered Clouds
3:52 PM 30.0 °F 26.5 °F 19.9 °F 66% 29.92 in 10.0 mi Variable 3.5 mph - N/A   Clear
4:52 PM 21.9 °F 17.2 °F 19.0 °F 89% 29.90 in 10.0 mi SSE 3.5 mph - N/A   Clear
6:52 PM 21.0 °F - 18.0 °F 88% 29.88 in 8.0 mi Calm Calm - N/A   Clear
7:52 PM 21.9 °F 15.7 °F 18.0 °F 85% 29.86 in 10.0 mi SSW 4.6 mph - N/A   Clear
8:52 PM 27.0 °F 20.5 °F 19.0 °F 72% 29.83 in 10.0 mi South 5.8 mph - N/A   Mostly Cloudy
9:52 PM 28.0 °F - 19.9 °F 72% 29.81 in 10.0 mi Calm Calm - N/A   Overcast
10:52 PM 28.9 °F 21.1 °F 21.0 °F 72% 29.78 in 10.0 mi South 8.1 mph - N/A   Overcast
11:52 PM 30.0 °F - 21.0 °F 69% 29.77 in 10.0 mi Calm Calm - N/A   Overcast